Cleveland, OH

8:45 PM EST on February 24, 2017 (GMT -0500)
Burke Lakefront

Weather History for KBKL - November, 2011

Change the Weather History Date:

Friday, November 18, 2011

  Actual Average Record
Temperature  
Mean Temperature 37 °F -  
Max Temperature 46 °F 47 °F 73 °F (2016)
Min Temperature 28 °F 36 °F 12 °F (2014)
Degree Days  
Heating Degree Days 28    
Moisture  
Dew Point 17 °F    
Average Humidity 43    
Maximum Humidity 59    
Minimum Humidity 29    
Precipitation  
Precipitation 0.00 in - - ()
Sea Level Pressure  
Sea Level Pressure 30.26 in    
Wind  
Wind Speed 15 mph (South)    
Max Wind Speed 22 mph    
Max Gust Speed 34 mph    
Visibility 10 miles    
Events      
Averages and records for this station are not official NWS values.
T = Trace of Precipitation, MM = Missing Value Source: NWS Daily Summary

Daily Weather History Graph

Daily Weather History Graph

Search for Another Location

Airport or City:

Trip Planner

Search our weather history database for the weather conditions in past years. The results will help you decide how hot, cold, wet, or windy it might be!

Date:

Astronomy

Nov. 18, 2011 Rise Set
Actual Time 7:18 AM EST 5:04 PM EST
Civil Twilight 6:48 AM EST 5:34 PM EST
Nautical Twilight 6:15 AM EST 6:08 PM EST
Astronomical Twilight 5:42 AM EST 6:41 PM EST
Moon No Moon Rise 12:55 PM EST (11/18)
Length of Visible Light 10h 45m
Length of Day
9h 45m
Waning Gibbous, 49% of the Moon is Illuminated
Nov 18
Waning Gibbous
Nov 25
New
Dec 2
First Quarter
Dec 10
Full
Dec 17
Last Quarter

Hourly Weather History & Observations

Time (EST) Temp. Windchill Dew Point Humidity Pressure Visibility Wind Dir Wind Speed Gust Speed Precip Events Conditions
12:53 AM 34.0 °F 23.0 °F 21.0 °F 59% 30.26 in 10.0 mi WSW 18.4 mph - N/A   Overcast
1:53 AM 33.1 °F 23.0 °F 19.9 °F 59% 30.28 in 10.0 mi SW 15.0 mph - N/A   Overcast
2:53 AM 33.1 °F 22.2 °F 19.9 °F 59% 30.31 in 10.0 mi SW 17.3 mph 20.7 mph N/A   Overcast
3:53 AM 30.0 °F 20.0 °F 16.0 °F 56% 30.33 in 10.0 mi SW 12.7 mph - N/A   Scattered Clouds
4:53 AM 28.9 °F 21.1 °F 16.0 °F 58% 30.34 in 10.0 mi SSW 8.1 mph - N/A   Clear
5:53 AM 28.9 °F 21.1 °F 16.0 °F 58% 30.35 in 10.0 mi South 8.1 mph - N/A   Clear
6:53 AM 30.0 °F 20.0 °F 16.0 °F 56% 30.37 in 10.0 mi South 12.7 mph - N/A   Clear
7:53 AM 30.9 °F 22.2 °F 16.0 °F 54% 30.37 in 10.0 mi South 10.4 mph - N/A   Clear
8:53 AM 33.1 °F 24.4 °F 17.1 °F 52% 30.37 in 10.0 mi South 11.5 mph - N/A   Clear
9:53 AM 37.9 °F 30.5 °F 16.0 °F 41% 30.35 in 10.0 mi South 11.5 mph - N/A   Clear
10:53 AM 41.0 °F 32.8 °F 16.0 °F 36% 30.35 in 10.0 mi SSW 16.1 mph - N/A   Clear
11:53 AM 44.1 °F 37.4 °F 16.0 °F 32% 30.33 in 10.0 mi South 13.8 mph 21.9 mph N/A   Clear
12:53 PM 46.0 °F 39.3 °F 16.0 °F 30% 30.29 in 10.0 mi South 16.1 mph 21.9 mph N/A   Clear
1:53 PM 46.0 °F 39.0 °F 16.0 °F 30% 30.28 in 10.0 mi South 17.3 mph 25.3 mph N/A   Clear
2:53 PM 46.0 °F 39.3 °F 15.1 °F 29% 30.25 in 10.0 mi SSW 16.1 mph 24.2 mph N/A   Clear
3:53 PM 44.6 °F 37.4 °F 15.8 °F 31% 30.22 in 10.0 mi South 16.1 mph 26.5 mph N/A   Clear
4:53 PM 44.1 °F 38.6 °F 18.0 °F 35% 30.21 in 10.0 mi South 10.4 mph 21.9 mph N/A   Overcast
5:53 PM 44.1 °F 37.1 °F 17.1 °F 34% 30.19 in 10.0 mi South 15.0 mph 21.9 mph N/A   Mostly Cloudy
6:53 PM 42.8 °F 34.3 °F 17.6 °F 36% 30.15 in 10.0 mi South 19.6 mph 28.8 mph N/A   Partly Cloudy
7:53 PM 42.1 °F 33.1 °F 17.1 °F 37% 30.14 in 10.0 mi South 20.7 mph 33.4 mph N/A   Mostly Cloudy
8:53 PM 42.1 °F 33.3 °F 17.1 °F 37% 30.14 in 10.0 mi South 19.6 mph 28.8 mph N/A   Mostly Cloudy
9:53 PM 42.1 °F 32.8 °F 17.1 °F 37% 30.12 in 10.0 mi SSE 21.9 mph 34.5 mph N/A   Mostly Cloudy
10:53 PM 42.1 °F 33.1 °F 17.1 °F 37% 30.12 in 10.0 mi South 20.7 mph 28.8 mph N/A   Scattered Clouds
11:53 PM 43.0 °F 35.4 °F 17.1 °F 35% 30.10 in 10.0 mi South 16.1 mph 25.3 mph N/A   Scattered Clouds